Location: Corralito
(10.2667°N, 66.9500°W)
Time: 04:43:19
(UTC+00:00)

Cosmos 1331 Rocket - Pass Details

Date: 11 December 2023
Orbit: 748 x 775 km, 74.0° (Epoch: 22 February)

Event Time Altitude Azimuth Distance (km) Brightness Sun altitude
Rises 22:27:37 0° 203° (SSW) 3,239 8.0 -5.5°
Reaches altitude 10° 22:30:02 10° 208° (SSW) 2,314 7.3 -6.0°
Maximum altitude 22:35:08 51° 283° (WNW) 968 5.0 -7.2°
Drops below altitude 10° 22:40:14 10° 359° (N) 2,315 6.3 -8.3°
Sets 22:42:41 0° 4° (N) 3,240 7.0 -8.9°
